Regional Weather Roundup
Issued by NWS

Home | Current Version | Previous Version | Text Only | Print | Product List | Glossary On
Versions: 1 2 3 4 5 6 7 8 9 10 11 12 13 14 15 16 17 18 19 20 21 22 23 24 25 26 27 28 29 30 31 32 33 34 35 36 37 38 39 40 41 42 43 44 45 46 47 48 49 50
000
ASUS43 KFSD 311810
RWRSD

WEATHER ROUNDUP FOR SOUTH DAKOTA
NATIONAL WEATHER SERVICE SIOUX FALLS SD
100 PM CDT THU JUL 31 2014

NOTE: "FAIR" INDICATES FEW OR NO CLOUDS BELOW 12,000 FEET WITH NO
SIGNIFICANT WEATHER AND/OR OBSTRUCTIONS TO VISIBILITY.


SDZ001>005-009-010-012>017-311900-
NORTHWEST AND NORTH CENTRAL SOUTH DAKOTA

CITY           SKY/WX    TMP DP  RH WIND       PRES   REMARKS
BUFFALO          N/A     84  48  28 SW3       30.08F
FAITH            N/A     81  51  35 VRB5      30.11F
MOBRIDGE         N/A    N/A N/A N/A MISG      30.05F
$$

SDZ012>016-024>037-041>051-057-063-072>074-311900-
SOUTHWEST AND SOUTH CENTRAL SOUTH DAKOTA

CITY           SKY/WX    TMP DP  RH WIND       PRES   REMARKS
RAPID CTY ARPT SUNNY     82  52  35 VRB5      30.17F
PIERRE         SUNNY     82  56  40 VRB5      30.07F
CUSTER         SUNNY     75  40  28 VRB3      30.30F
ELLSWORTH AFB  SUNNY     80  50  34 VRB1      30.17F
PHILIP         SUNNY     85  53  33 VRB7      30.09F
PINE RIDGE     SUNNY     80  53  39 N7        30.19S
WINNER         FAIR      85  54  34 N12G17    30.09F
$$

SDZ004>011-016>023-039-040-311900-
NORTHEAST SOUTH DAKOTA

CITY           SKY/WX    TMP DP  RH WIND       PRES   REMARKS
ABERDEEN       SUNNY     79  54  41 N5        30.07F
WATERTOWN      MOSUNNY   75  50  41 CALM      30.08F
SISSETON         N/A     79  58  48 NW8       30.04F
$$

SDZ017-020-022-023-036>040-048>070-311900-
SOUTHEAST SOUTH DAKOTA

CITY           SKY/WX    TMP DP  RH WIND       PRES   REMARKS
SIOUX FALLS    PTSUNNY   78  59  51 N9        30.07F
HURON          CLOUDY    80  55  42 N6        30.06F
CHAMBERLAIN    SUNNY     81  57  44 SE5       30.07F
MITCHELL       PTSUNNY   77  62  59 E5        30.08F
YANKTON        MOSUNNY   75  61  60 SE9       30.07S
$$

ABBREVIATIONS USED IN REMARKS
   TC - TEMPERATURE IN CELSIUS
  WCI - WIND CHILL INDEX
   HX - HEAT INDEX
  VSB - VISIBILITY




USA.gov is the U.S. government's official web portal to all federal, state and local government web resources and services.